Flag for USA

Past Weather in Hayfork, California, USA — Yesterday and Last 2 Weeks

Now
77 °F

Sunny.


Feels Like: 78 °F
Forecast: 91 / 55 °F
Wind: No wind

Location: Weaverville

Current Time: Jul 13, 2020 at 12:06:17 pm

Latest Report: Jul 13, 2020 at 10:55 am


Visibility: 10 mi

Pressure: 29.95 "Hg (27.62 "Hg at 706m altitude)

Humidity: 44%

Dew Point: 54 °F

Location of HayforkLocation

Past Weather in Hayfork — Graph

°F

Hayfork Temperature Yesterday

Maximum temperature yesterday: 91 °F (at 3:15 pm)
Minimum temperature yesterday: 48 °F (at 5:55 am)
Average temperature yesterday: 71 °F

High & Low Weather Summary for the Past Weeks

 TemperatureHumidityPressure
High95 °F (Jul 11, 2:55 pm)94% (Jul 8, 5:35 am)30.16 "Hg (Jul 8, 5:35 am)
Low43 °F (Jun 29, 5:35 am)7% (Jul 5, 2:35 pm)29.72 "Hg (Jun 28, 10:15 am)
Average67 °F46%30.00 "Hg
* Reported Jun 28 10:15 am — Jul 13 10:55 am, Hayfork. Weather by CustomWeather, © 2020

Note: Actual official high and low records may vary slightly from our data, if they occured in-between our weather recording intervals... More about our weather records

Hayfork Weather History for the Previous 24 Hours

Scroll right to see more
 ConditionsComfort  
Time TempWeatherWind HumidityBarometerVisibility
10:55 am
Mon, Jul 13
77 °FSunny.No wind44%29.95 "Hg10 mi
10:15 am75 °FSunny.5 mph44%29.95 "Hg10 mi
9:55 am73 °FSunny.No wind47%29.96 "Hg10 mi
9:35 am72 °FSunny.No wind50%29.96 "Hg10 mi
9:15 am68 °FSunny.No wind56%29.97 "Hg10 mi
8:55 am66 °FSunny.3 mph60%29.97 "Hg10 mi
8:15 am64 °FSunny.No wind60%29.97 "Hg10 mi
7:55 am63 °FSunny.No wind64%29.98 "Hg10 mi
7:35 am59 °FSunny.No wind72%29.98 "Hg10 mi
7:15 am57 °FSunny.No wind77%29.98 "Hg10 mi
6:55 am55 °FSunny.No wind77%29.98 "Hg10 mi
6:35 am54 °FSunny.No wind82%29.97 "Hg10 mi
6:15 am54 °FSunny.No wind82%29.97 "Hg10 mi
5:55 am54 °FSunny.No wind82%29.98 "Hg10 mi
5:15 am55 °FClear.3 mph77%29.97 "Hg10 mi
4:55 am55 °FClear.No wind77%29.97 "Hg10 mi
4:35 am55 °FClear.No wind77%29.96 "Hg10 mi
4:15 am55 °FClear.No wind77%29.96 "Hg10 mi
3:55 am57 °FClear.No wind72%29.96 "Hg10 mi
3:35 am57 °FClear.No wind72%29.96 "Hg10 mi
3:15 am57 °FClear.No wind72%29.96 "Hg10 mi
2:55 am57 °FClear.No wind72%29.97 "Hg10 mi
2:35 am57 °FClear.No wind77%29.97 "Hg10 mi
2:15 am59 °FClear.No wind72%29.96 "Hg10 mi
1:55 am59 °FClear.No wind72%29.96 "Hg10 mi
1:35 am61 °FClear.No wind68%29.96 "Hg10 mi
1:15 am61 °FClear.No wind68%29.97 "Hg10 mi
12:55 am63 °FClear.No wind64%29.97 "Hg10 mi
12:35 am63 °FClear.No wind64%29.97 "Hg10 mi
12:15 am63 °FClear.3 mph64%29.96 "Hg10 mi
11:35 pm
Sun, Jul 12
68 °FClear.No wind53%29.96 "Hg10 mi
11:15 pm68 °FClear.7 mph53%29.96 "Hg10 mi
10:55 pm72 °FClear.7 mph47%29.95 "Hg10 mi
10:35 pm73 °FClear.7 mph44%29.95 "Hg10 mi
10:15 pm73 °FClear.8 mph44%29.95 "Hg10 mi
9:55 pm73 °FClear.8 mph44%29.95 "Hg10 mi
9:35 pm75 °FClear.7 mph41%29.94 "Hg10 mi
8:55 pm77 °FClear.7 mph36%29.92 "Hg10 mi
8:35 pm77 °FSunny.10 mph36%29.92 "Hg10 mi
8:15 pm79 °FSunny.12 mph34%29.92 "Hg10 mi
7:55 pm81 °FSunny.13 mph32%29.93 "Hg10 mi
7:35 pm82 °FSunny.9 mph30%29.93 "Hg10 mi
7:15 pm84 °FSunny.5 mph29%29.92 "Hg10 mi
6:55 pm86 °FSunny.No wind27%29.92 "Hg10 mi
6:35 pm86 °FSunny.5 mph27%29.91 "Hg10 mi
6:15 pm88 °FSunny.8 mph25%29.92 "Hg10 mi
5:35 pm90 °FSunny.5 mph24%29.92 "Hg10 mi
4:55 pm90 °FSunny.7 mph22%29.93 "Hg10 mi
4:35 pm91 °FSunny.13 mph21%29.94 "Hg10 mi
4:15 pm91 °FSunny.8 mph21%29.94 "Hg10 mi
3:55 pm90 °FSunny.12 mph21%29.95 "Hg10 mi
3:35 pm91 °FSunny.10 mph20%29.95 "Hg10 mi
3:15 pm91 °FSunny.9 mph20%29.96 "Hg10 mi
2:55 pm90 °FSunny.13 mph21%29.96 "Hg10 mi
2:35 pm90 °FSunny.10 mph20%29.97 "Hg10 mi
2:15 pm90 °FSunny.7 mph20%29.98 "Hg10 mi
1:55 pm90 °FSunny.8 mph18%29.98 "Hg10 mi
1:35 pm88 °FSunny.10 mph18%29.99 "Hg10 mi
1:15 pm88 °FSunny.12 mph17%30.00 "Hg10 mi
12:55 pm86 °FSunny.9 mph17%30.01 "Hg10 mi
12:15 pm84 °FSunny.10 mph18%30.03 "Hg10 mi
Weather by CustomWeather, © 2020

See weather overview